Simultaneous Nadir Overpasses (SNOs) Predictions

Prediction of SNOs between AQUA and NOAA-19 Satellite Orbit:

Table of predicted SNOs for the next 14.0 days since TLE Epoch: 1/20/2024
Index Date (AQUA) Time (AQUA) Lat,Lon (AQUA) SZA (AQUA ) Date (NOAA-19) Time (NOAA-19) Lat,Lon (NOAA-19) SZA (NOAA-19 ) Distance(km) Time Diff (sec)
1 01/21/2024 03:31:25 -75.90, -58.05 84.03 01/21/2024 03:30:22 -75.90, -58.16 84.02 3.15 63
2 01/21/2024 04:20:50 75.95, 109.47 96.02 01/21/2024 04:21:14 75.96, 109.34 96.03 3.61 24
3 01/23/2024 08:12:05 -75.92,-128.23 84.50 01/23/2024 08:11:32 -75.94,-128.24 84.47 2.38 33
4 01/23/2024 09:01:30 75.97, 39.28 95.55 01/23/2024 09:02:25 75.97, 39.14 95.55 3.77 55
5 01/25/2024 12:52:44 -75.94, 161.57 85.00 01/25/2024 12:52:43 -75.93, 161.49 85.00 2.49 1
6 01/25/2024 13:42:19 76.47, -32.51 95.59 01/25/2024 13:43:24 76.50, -29.10 95.50 88.65 65
7 01/27/2024 16:43:58 75.88, -76.03 94.40 01/27/2024 16:42:50 75.90, -76.09 94.43 2.56 68
8 01/27/2024 17:33:22 -75.97, 91.37 85.52 01/27/2024 17:33:53 -75.96, 91.35 85.53 1.43 31
9 01/29/2024 21:24:35 75.92,-146.25 93.86 01/29/2024 21:24:00 75.93,-146.21 93.88 1.82 35
10 01/29/2024 22:13:59 -76.00, 21.15 86.06 01/29/2024 22:15:03 -75.97, 21.17 86.10 3.31 64
11 02/01/2024 02:05:11 75.96, 143.52 93.30 02/01/2024 02:05:10 75.95, 143.64 93.30 3.29 1



Historial Predications of SNOs between AQUA and NOAA-19
